Zurück zum Katalog

COSMOS 1275 DEB

AktivPO
NORAD 42200·DEBRIS·🇷🇺 Russia

Gestartet Jun 4, 1981 von Plesetsk Cosmodrome

Loading…

Nächste Überflüge (nächste 24 Stunden)

TLE

AktuellSource: Space-Track

Epoche: Sep 13, 2026, 05:00 UTC

1 42200U 81053TQ  26256.20857876  .00001879  00000-0  10307-2 0  9997
2 42200  82.9805  61.1264 0069799 257.0771 102.2603 14.10154383654145

Verfolge COSMOS 1275 DEB in Echtzeit mit AllMySat

Download on the App Store